Regional Weather Roundup
Issued by NWS Grand Forks, ND

Home | Current Version | Previous Version | Graphics & Text | Print | Product List | Glossary On
Versions: 1 2 3 4 5 6 7 8 9 10 11 12 13 14 15 16 17 18 19 20 21 22 23 24 25 26 27 28 29 30 31 32 33 34 35 36 37 38 39 40 41 42 43 44 45 46 47 48 49 50
948
ASUS43 KFGF 041431
RWRFGF
PRAIRIE TO PINES  WEATHER ROUNDUP
NATIONAL WEATHER SERVICE EASTERN NORTH DAKOTA/GRAND FORKS ND
900 AM CDT WED MAY 04 2016

 **SATELLITE DATA USED TO AUGMENT SKY COVER AT AUTOMATED STATIONS**
 *****  WEATHER ACROSS EASTERN NORTH DAKOTA  *****

CITY           SKY/WX    TMP DP  RH WIND       PRES   REMARKS
GRAND FORKS    MOSUNNY   49  36  61 NW9       30.12R
GRAND FRKS AFB SUNNY     48  36  61 N7        30.12R
DEVILS LAKE    SUNNY     49  38  65 CALM      30.13S
FARGO          SUNNY     50  35  56 N8        30.10R
WAHPETON ARPT  SUNNY     50  34  53 N12       30.10R
$$

 ***** WEATHER ACROSS CENTRAL AND WESTERN NORTH DAKOTA  *****

CITY           SKY/WX    TMP DP  RH WIND       PRES   REMARKS
BISMARCK       SUNNY     48  36  63 E3        30.13S
MINOT          MOSUNNY   55  34  45 SE6       30.07S
JAMESTOWN      SUNNY     50  35  56 NW7       30.12R
MINOT AFB      SUNNY     52  37  55 SE8       30.05F
GARRISON         N/A     52  31  44 S6        30.09F
WILLISTON      SUNNY     59  41  51 S6        30.06F
DICKINSON      SUNNY     61  39  44 S7        30.09S
HETTINGER      SUNNY     58  37  45 SW5       30.14S
$$

 *****  OTHER AIRPORT OBSERVATIONS IN OUR AREA  *****

CITY           SKY/WX    TMP DP  RH WIND       PRES   REMARKS
WALHALLA       FAIR      48  37  66 N5        30.13S
GRAFTON AIRPOR FAIR      50  37  62 NW5       30.14S
VALLEY CITY AR FAIR      50  37  62 NW8       30.14S
CANDO          FAIR      52  32  46 W3        30.14F
CAVALIER APRT  FAIR      48  37  66 NW6       30.13S
GWINNER        FAIR      52  36  54 N10       30.12R
ROLLA          FAIR      54  32  43 SW8       30.12S
 ***** THE ABOVE OBSERVATIONS ARE NON NWS ARE NOT QUALITY
       CONTROLLED AND MAY MIS-REPORT RAIN FOR SNOW...
$$

  *****  WEATHER ACROSS NORTHERN MINNESOTA  *****

CITY           SKY/WX    TMP DP  RH WIND       PRES   REMARKS
FLAG ISLAND    SUNNY     43  30  61 N7        30.08R
WARROAD        SUNNY     46  32  57 N6        30.09S
ROSEAU         SUNNY     48  34  57 N5        30.09S
HALLOCK        SUNNY     48  37  66 NW5       30.11S
THF RVR FALLS  SUNNY     52  34  50 N6        30.11R
BAUDETTE       SUNNY     48  30  49 N9        30.07R
WASKISH        SUNNY     48  32  53 N7        30.06S
CROOKSTON      SUNNY     48  36  61 NW6       30.12R
STEPHEN NDAWN    N/A     50  36  57 N5          N/A
GREENBUSH NDAW   N/A     48  39  71 N3          N/A
$$
  *****  WEATHER ACROSS CENTRAL AND WEST MINNESOTA  *****

CITY           SKY/WX    TMP DP  RH WIND       PRES   REMARKS
FOSSTON        SUNNY     50  36  57 N9        30.09R
BEMIDJI        SUNNY     49  33  54 N12       30.06R
PARK RAPIDS    SUNNY     50  34  54 N9        30.05R
ELBOW LAKE     FAIR      52  39  61 W6        30.07R
WADENA         SUNNY     52  36  54 NW10      30.05R
DETROIT LAKES  SUNNY     50  37  62 NW3       30.08R
MOORHEAD       SUNNY     48  36  61 N9        30.11R
FERGUS FALLS   SUNNY     54  39  58 N6        30.06R
MORRIS MN      SUNNY     54  37  54 NW7       30.06S
STAPLES        SUNNY     52  34  50 NW8       30.04R
$$
  *****  WEATHER ELSEWHERE ACROSS MINNESOTA  *****

CITY           SKY/WX    TMP DP  RH WIND       PRES   REMARKS
DULUTH         SUNNY     48  32  53 N15G23    29.96R
INTRNTL FALLS  SUNNY     45  27  49 N12       30.04R
ELY            SUNNY     43  27  52 N12       29.97R
CLOQUET        SUNNY     50  30  46 N13G20    29.97S
WHEATON        SUNNY     54  39  58 NW8       30.11R
BRAINERD       SUNNY     50  35  56 N13       30.02S
HIBBING        SUNNY     45  33  63 N15       29.99R
ALEXANDRIA     SUNNY     53  35  50 NW7       30.06R
SAINT CLOUD    SUNNY     52  34  50 N13       30.01R
MINNEAPOLIS    SUNNY     53  33  46 N9        29.99R
$$

  *****  WEATHER ACROSS SOUTH DAKOTA  *****

CITY           SKY/WX    TMP DP  RH WIND       PRES   REMARKS
SIOUX FALLS    SUNNY     53  37  54 NE7       30.08R
BROOKINGS      SUNNY     49  36  61 N8        30.08R
WATERTOWN      SUNNY     52  37  56 N6        30.09R
HURON          SUNNY     50  36  58 N10       30.12R
SISSETON         N/A     51  35  54 NW13      30.08S
ABERDEEN       SUNNY     52  37  56 N9        30.13R
MITCHELL       SUNNY     49  38  65 NW10      30.12R
PIERRE         SUNNY     54  33  45 CALM      30.14R
MOBRIDGE       SUNNY     51  40  65 CALM      30.12R
RAPID CITY     SUNNY     57  40  52 W5        30.17R
$$

  *****  SOME WEATHER IN NEARBY STATES *****

CITY           SKY/WX    TMP DP  RH WIND       PRES   REMARKS
GLASGOW MT     SUNNY     58  41  53 SE12      30.02R
GREAT FALLS MT SUNNY     60  37  42 S12       30.01S
CHEYENNE WY    SUNNY     50  36  58 W10       30.28R
SCOTTSBLUFF NE SUNNY     50  41  71 NW10      30.22R
OMAHA NE       SUNNY     54  38  54 N14       30.03R
DES MOINES IA  SUNNY     56  38  50 NE14      29.95R
DAVENPORT IA   SUNNY     52  44  74 N15G23    29.84R
CHICAGO IL     PTSUNNY   49  39  68 N16       29.72S
EAU CLAIRE WI  SUNNY     51  36  56 N10       29.92R
LA CROSSE WI   SUNNY     52  37  56 NW14      29.91R
$$

  *****  SOME NATIONAL WEATHER *****

CITY           SKY/WX    TMP DP  RH WIND       PRES   REMARKS
LA GUARDIA NY  CLOUDY    52  46  80 NE16      29.79F
RALEIGH NC     CLOUDY    61  57  87 N6        29.71F
ATLANTA GA     MOSUNNY   62  46  55 NW16      29.83S
NEW ORLEANS LA MOSUNNY   69  49  48 N17G23    29.97S
OKLAHOMA CITY  SUNNY     62  48  60 NW9       30.06R
ALBUQUERQUE NM SUNNY     53  30  41 N12       30.33R
SALT LAKE CITY PTSUNNY   59  36  42 S8        30.15R
LOS ANGELES CA CLOUDY    58  54  86 CALM      29.94S FOG
BOISE ID       MOSUNNY   58  37  45 NW5       29.99R
SEATTLE WA     CLOUDY    53  44  71 NE12      30.08R
$$

*** WEATHER ACROSS MANITOBA...SASKATCHEWAN AND ONTARIO ***
                ***ONTARIO***

CITY           SKY/WX    TMP DP  RH WIND       PRES   REMARKS
GERALDTON      FLURRIES  30  28  93 N13G20    29.92R WCI  20
THUNDER BAY    PTSUNNY   41  28  60 N8        29.95R
SIOUX LOOKOUT  MOSUNNY   36  25  64 N7        30.04S
TORONTO        PTSUNNY   54  41  62 SE6       29.72F
BIG TROUT LK   SUNNY     27  18  69 VRB2      30.09R
PICKLE LAKE    MOSUNNY   34  18  51 N5        30.03R
DRYDEN         SUNNY     39  23  52 NE8G18    30.04R
KENORA         MOSUNNY   41  25  52 N6        30.07R
$$
                *** MANITOBA***

CITY           SKY/WX    TMP DP  RH WIND       PRES   REMARKS
BRANDON        MOSUNNY   52  34  50 VRB2      30.09F
DAUPHIN        SUNNY     54  34  47 SE8       30.03F
ISLAND LAKE    MOSUNNY   36  23  60 S7        30.08
PILOT MOUND      N/A     50  34  53 SW6         N/A
THE PAS        CLOUDY    54  34  47 S13       29.86F
THOMPSON       PTSUNNY   45  27  49 S12G18    29.92F
WINNIPEG       PTSUNNY   48  37  66 SW3       30.12R
LYNN LAKE      PTSUNNY   52  32  46 S8G17     29.73F
CHURCHILL      PTSUNNY   34  23  64 S16       29.90F WCI  23
GILLAM         PTSUNNY   36  21  55 S12       30.01F
$$
                ***SASKATCHEWAN***

CITY           SKY/WX    TMP DP  RH WIND       PRES   REMARKS
ESTEVAN        MOSUNNY   61  41  48 SW9       30.03F
KINDERSLEY     MOSUNNY   61  41  48 S12       29.86S
LLOYDMINSTER   MOSUNNY   61  43  51 SW7       29.77F
PRINCE ALBERT  MOSUNNY   64  46  52 SW6       29.82F
REGINA         MOSUNNY   57  39  51 SE8       29.99R
YORKTON        SUNNY     55  34  44 S13       29.96F
N. BATTLEFORD  SUNNY     66  43  42 SW7       29.83S
LA RONGE       SUNNY     57  39  51 S3        29.75F
SASKATOON      SUNNY     63  41  45 S13       29.87F
SWIFT CURRENT  SUNNY     66  39  37 SW18      29.94S
$$
NOTE: THESE ARE AUTOMATED STATIONS WITH LIMITED QUALITY CONTROL
      "FAIR" INDICATES FEW OR NO CLOUDS BELOW 12,000 FEET WITH NO
      SIGNIFICANT WEATHER AND/OR OBSTRUCTIONS TO VISIBILITY.
      SKY/WX - SKY CONDITION AND SIGNIFICANT WEATHER.
      TMP - AIR TEMPERATURE.    DP   - DEWPOINT TEMPERATURE.
      RH  - RELATIVE HUMIDITY.  PRES - PRESSURE.
      HX  - HEAT INDEX.         WCI  - WIND CHILL INDEX.
$




USA.gov is the U.S. government's official web portal to all federal, state and local government web resources and services.